Weather History for Cook, MN

Change the Weather History Date:

Tuesday, October 22, 2013

  Actual Average Record
Temperature  
Mean Temperature 32 °F -  
Max Temperature 37 °F 45 °F 68 °F (2000)
Min Temperature 26 °F 30 °F 21 °F (2006)
Degree Days  
Heating Degree Days 34    
Moisture  
Dew Point 26 °F    
Average Humidity 78    
Maximum Humidity 93    
Minimum Humidity 56    
Precipitation  
Precipitation 0.00 in - - ()
Sea Level Pressure  
Sea Level Pressure 29.95 in    
Wind  
Wind Speed 3 mph (NW)    
Max Wind Speed 8 mph    
Max Gust Speed -    
Visibility 10 miles    
Events Snow    
Averages and records for this station are not official NWS values.
T = Trace of Precipitation, MM = Missing Value Source: NWS Daily Summary

Daily Weather History Graph

Daily Weather History Graph

Search for Another Location

Airport:

Trip Planner

Search our weather history database for the weather conditions in past years. The results will help you decide how hot, cold, wet, or windy it might be!

Date:

Astronomy

Oct. 22, 2013 Rise Set
Actual Time 7:40 AM CDT 6:08 PM CDT
Civil Twilight 7:08 AM CDT 6:40 PM CDT
Nautical Twilight 6:32 AM CDT 7:16 PM CDT
Astronomical Twilight 5:57 AM CDT 7:52 PM CDT
Moon 8:38 PM CDT (10/22) 11:20 AM CDT (10/22)
Length of Visible Light 11h 31m
Length of Day
10h 28m
Waning Gibbous, 86% of the Moon is Illuminated
Oct 22
Waning Gibbous
Oct 26
Last Quarter
Nov 3
New
Nov 9
First Quarter
Nov 17
Full

Hourly Weather History & Observations

Time (CDT) Temp. Windchill Dew Point Humidity Pressure Visibility Wind Dir Wind Speed Gust Speed Precip Events Conditions
12:16 AM 33.8 °F 29.6 °F 30.2 °F 87% 29.87 in 10.0 mi NW 4.6 mph - N/A   Overcast
12:36 AM 33.8 °F 29.6 °F 28.4 °F 81% 29.87 in 10.0 mi NNW 4.6 mph - N/A   Overcast
12:57 AM 32.0 °F 28.7 °F 30.2 °F 93% 29.88 in 10.0 mi NNW 3.5 mph - N/A   Overcast
1:16 AM 32.0 °F - 30.2 °F 93% 29.89 in 10.0 mi Calm Calm - N/A   Overcast
1:36 AM 32.0 °F 28.7 °F 28.4 °F 87% 29.89 in 10.0 mi NW 3.5 mph - N/A   Overcast
1:57 AM 32.0 °F 28.7 °F 28.4 °F 87% 29.89 in 10.0 mi NNW 3.5 mph - N/A   Overcast
2:16 AM 32.0 °F 27.5 °F 28.4 °F 87% 29.90 in 7.0 mi NNW 4.6 mph - N/A Snow Light Snow
2:37 AM 32.0 °F 28.7 °F 28.4 °F 87% 29.90 in 5.0 mi NNW 3.5 mph - N/A Snow Light Snow
2:57 AM 30.2 °F - 28.4 °F 93% 29.90 in 10.0 mi Calm Calm - N/A   Overcast
3:16 AM 30.2 °F - 28.4 °F 93% 29.90 in 10.0 mi Calm Calm - N/A   Overcast
3:37 AM 30.2 °F 26.7 °F 28.4 °F 93% 29.90 in 10.0 mi NNW 3.5 mph - N/A   Overcast
3:56 AM 30.2 °F 25.4 °F 28.4 °F 93% 29.91 in 10.0 mi NNW 4.6 mph - N/A   Overcast
4:17 AM 30.2 °F 26.7 °F 28.4 °F 93% 29.91 in 10.0 mi NNW 3.5 mph - N/A   Overcast
4:37 AM 30.2 °F 26.7 °F 28.4 °F 93% 29.91 in 10.0 mi NNW 3.5 mph - N/A   Overcast
4:56 AM 30.2 °F 25.4 °F 28.4 °F 93% 29.92 in 7.0 mi NNW 4.6 mph - N/A Snow Light Snow
5:17 AM 30.2 °F - 28.4 °F 93% 29.92 in 10.0 mi Calm Calm - N/A   Overcast
5:36 AM 30.2 °F 24.3 °F 28.4 °F 93% 29.92 in 5.0 mi NNW 5.8 mph - N/A   Overcast
5:56 AM 30.2 °F - 28.4 °F 93% 29.93 in 10.0 mi Calm Calm - N/A   Overcast
6:17 AM 30.2 °F 25.4 °F 26.6 °F 86% 29.93 in 10.0 mi NNW 4.6 mph - N/A   Overcast
6:37 AM 30.2 °F - 26.6 °F 86% 29.93 in 10.0 mi Calm Calm - N/A   Overcast
6:56 AM 30.2 °F 26.7 °F 24.8 °F 80% 29.93 in 10.0 mi NNW 3.5 mph - N/A   Overcast
7:17 AM 30.2 °F - 24.8 °F 80% 29.94 in 10.0 mi Calm Calm - N/A   Overcast
7:37 AM 30.2 °F 24.3 °F 24.8 °F 80% 29.95 in 10.0 mi NNW 5.8 mph - N/A   Overcast
7:56 AM 30.2 °F 26.7 °F 24.8 °F 80% 29.95 in 10.0 mi NNW 3.5 mph - N/A   Overcast
8:17 AM 30.2 °F - 24.8 °F 80% 29.96 in 10.0 mi Calm Calm - N/A   Overcast
8:37 AM 30.2 °F 26.7 °F 24.8 °F 80% 29.96 in 10.0 mi NNW 3.5 mph - N/A   Overcast
8:56 AM 30.2 °F - 24.8 °F 80% 29.97 in 10.0 mi Calm Calm - N/A   Overcast
9:17 AM 30.2 °F - 24.8 °F 80% 29.97 in 10.0 mi Calm Calm - N/A   Overcast
9:37 AM 30.2 °F 25.4 °F 24.8 °F 80% 29.97 in 10.0 mi NNW 4.6 mph - N/A   Overcast
9:56 AM 32.0 °F 27.5 °F 24.8 °F 75% 29.97 in 10.0 mi NNW 4.6 mph - N/A   Overcast
10:17 AM 32.0 °F - 24.8 °F 75% 29.98 in 10.0 mi Calm Calm - N/A   Overcast
10:37 AM 32.0 °F 27.5 °F 24.8 °F 75% 29.98 in 10.0 mi NNW 4.6 mph - N/A   Overcast
10:56 AM 33.8 °F 30.8 °F 24.8 °F 70% 29.98 in 10.0 mi NNW 3.5 mph - N/A   Overcast
11:17 AM 33.8 °F 29.6 °F 24.8 °F 70% 29.98 in 10.0 mi North 4.6 mph - N/A   Overcast
11:37 AM 33.8 °F 29.6 °F 24.8 °F 70% 29.98 in 10.0 mi North 4.6 mph - N/A   Overcast
11:56 AM 33.8 °F 27.7 °F 24.8 °F 70% 29.98 in 10.0 mi NNW 6.9 mph - N/A   Overcast
12:17 PM 33.8 °F 27.7 °F 24.8 °F 70% 29.99 in 10.0 mi NNW 6.9 mph - N/A   Overcast
12:37 PM 33.8 °F 29.6 °F 24.8 °F 70% 29.98 in 10.0 mi NNW 4.6 mph - N/A   Overcast
12:56 PM 35.6 °F 32.8 °F 24.8 °F 65% 29.98 in 10.0 mi North 3.5 mph - N/A   Mostly Cloudy
1:17 PM 35.6 °F 31.7 °F 23.0 °F 60% 29.97 in 10.0 mi North 4.6 mph - N/A   Mostly Cloudy
1:36 PM 35.6 °F 30.7 °F 23.0 °F 60% 29.97 in 10.0 mi NNW 5.8 mph - N/A   Overcast
1:56 PM 35.6 °F - 23.0 °F 60% 29.97 in 10.0 mi Calm Calm - N/A   Scattered Clouds
2:16 PM 37.4 °F 32.8 °F 23.0 °F 56% 29.96 in 10.0 mi NW 5.8 mph - N/A   Mostly Cloudy
2:36 PM 35.6 °F 29.9 °F 23.0 °F 60% 29.96 in 10.0 mi NNW 6.9 mph - N/A   Overcast
2:57 PM 35.6 °F 30.7 °F 21.2 °F 56% 29.96 in 10.0 mi NNW 5.8 mph - N/A   Overcast
3:16 PM 35.6 °F 31.7 °F 23.0 °F 60% 29.96 in 10.0 mi NNW 4.6 mph - N/A   Overcast
3:36 PM 35.6 °F - 21.2 °F 56% 29.96 in 10.0 mi Calm Calm - N/A   Overcast
3:57 PM 35.6 °F - 21.2 °F 56% 29.96 in 10.0 mi Calm Calm - N/A   Overcast
4:16 PM 35.6 °F - 23.0 °F 60% 29.96 in 10.0 mi Calm Calm - N/A   Overcast
4:36 PM 35.6 °F 31.7 °F 23.0 °F 60% 29.97 in 10.0 mi WNW 4.6 mph - N/A   Overcast
4:57 PM 35.6 °F - 21.2 °F 56% 29.97 in 10.0 mi Calm Calm - N/A   Overcast
5:16 PM 35.6 °F 32.8 °F 23.0 °F 60% 29.97 in 10.0 mi WNW 3.5 mph - N/A   Overcast
5:36 PM 35.6 °F 32.8 °F 23.0 °F 60% 29.97 in 10.0 mi WNW 3.5 mph - N/A   Overcast
5:56 PM 35.6 °F - 24.8 °F 65% 29.97 in 10.0 mi Calm Calm - N/A   Overcast
6:17 PM 33.8 °F - 24.8 °F 70% 29.96 in 10.0 mi Calm Calm - N/A   Overcast
6:36 PM 33.8 °F - 24.8 °F 70% 29.96 in 10.0 mi Calm Calm - N/A   Overcast
6:56 PM 33.8 °F - 24.8 °F 70% 29.96 in 10.0 mi Calm Calm - N/A   Overcast
7:16 PM 30.2 °F - 26.6 °F 86% 29.96 in 10.0 mi Calm Calm - N/A   Mostly Cloudy
7:36 PM 30.2 °F - 24.8 °F 80% 29.96 in 10.0 mi Calm Calm - N/A   Clear
7:57 PM 28.4 °F - 24.8 °F 86% 29.96 in 10.0 mi Calm Calm - N/A   Clear
8:16 PM 28.4 °F - 24.8 °F 86% 29.96 in 10.0 mi Calm Calm - N/A   Clear
8:36 PM 28.4 °F - 24.8 °F 86% 29.96 in 10.0 mi Calm Calm - N/A   Scattered Clouds
8:57 PM 28.4 °F - 24.8 °F 86% 29.95 in 10.0 mi Calm Calm - N/A   Mostly Cloudy
9:16 PM 26.6 °F - 24.8 °F 93% 29.96 in 10.0 mi Calm Calm - N/A   Mostly Cloudy
9:36 PM 28.4 °F - 24.8 °F 86% 29.96 in 10.0 mi Calm Calm - N/A   Overcast
9:57 PM 30.2 °F 24.3 °F 24.8 °F 80% 29.95 in 10.0 mi West 5.8 mph - N/A   Overcast
10:16 PM 30.2 °F 24.3 °F 26.6 °F 86% 29.95 in 10.0 mi West 5.8 mph - N/A   Overcast
10:36 PM 30.2 °F 24.3 °F 26.6 °F 86% 29.95 in 10.0 mi West 5.8 mph - N/A   Overcast
10:57 PM 30.2 °F 23.4 °F 26.6 °F 86% 29.95 in 10.0 mi West 6.9 mph - N/A   Overcast
11:16 PM 30.2 °F 23.4 °F 26.6 °F 86% 29.95 in 10.0 mi West 6.9 mph - N/A   Overcast
11:36 PM 30.2 °F 22.6 °F 26.6 °F 86% 29.95 in 10.0 mi West 8.1 mph - N/A   Overcast
11:57 PM 30.2 °F 23.4 °F 28.4 °F 93% 29.94 in 10.0 mi West 6.9 mph - N/A   Overcast